Probability
0 0 26 45 45 35 35 35 42 39 35 35 29 35 35 35 35 35 35 32 26 23 10 10 10 10 6 13 10 13 13 13 13 10 6 6 10 10 10 3 0 0 3
0 0 26 48 45 39 39 39 42 35 32 35 32 32 32 29 32 32 26 32 26 23 16 13 10 6 3 3 16 10 10 10 6 6 3 3 10 6 3 0 0 3 3
0 6 26 42 39 39 45 39 35 32 32 29 29 29 32 35 29 29 29 23 26 16 13 3 6 3 0 0 3 10 10 6 3 3 0 0 0 6 3 3 0 0 3
3 10 16 39 35 35 39 32 29 29 29 29 26 32 26 26 29 29 23 23 16 16 10 3 6 0 0 0 6 6 6 3 3 0 0 0 0 6 3 0 0 0 0
6 6 16 26 35 35 35 35 29 29 26 29 26 26 26 26 26 23 23 23 19 16 16 6 6 0 0 0 3 6 3 0 0 0 0 0 0 3 0 0 0 0 0
6 6 16 23 26 29 29 32 32 29 29 26 19 19 19 23 23 19 19 16 16 13 13 16 13 6 0 3 3 3 0 0 0 0 0 0 0 3 3 0 0 0 0
3 3 6 19 23 23 29 32 32 26 29 19 23 19 23 26 19 16 13 13 13 10 10 6 13 6 0 0 0 0 0 0 0 0 0 0 0 0 3 0 0 0 0
6 6 3 16 19 19 26 29 29 29 26 19 29 19 23 23 19 16 10 10 10 13 10 13 13 10 0 0 0 0 0 0 0 0 0 0 0 0 3 3 0 0 0
0 3 3 3 10 16 23 23 26 26 26 23 29 32 23 19 23 19 13 10 10 10 10 13 16 10 3 0 0 0 0 0 0 0 0 0 0 3 3 6 0 0 0
0 3 0 3 3 13 10 19 19 26 19 16 19 13 10 13 10 23 16 16 10 6 6 10 16 13 10 3 0 0 0 0 0 0 0 0 0 3 6 3 0 0 0
0 0 0 0 3 3 0 6 10 13 6 3 0 0 3 0 0 0 0 3 10 6 6 6 6 6 0 0 0 0 0 0 0 0 0 0 0 3 6 0 3 0 0
0 0 0 0 0 0 0 0 0 0 0 0 0 0 0 0 0 0 0 0 3 3 3 6 3 0 0 0 0 0 0 0 0 0 0 0 0 3 6 3 3 0 0
0 0 0 0 0 0 0 0 0 0 0 0 0 0 0 0 0 0 0 0 0 0 0 0 0 0 0 0 0 0 0 0 0 0 0 0 0 3 3 3 0 3 0
0 0 0 0 0 0 0 0 0 0 0 0 0 0 0 0 0 0 0 0 0 0 0 0 0 0 0 0 0 0 0 0 0 0 0 0 0 3 0 3 0 3 0
0 0 0 0 0 0 0 0 0 0 0 0 0 0 0 0 0 0 0 0 0 0 0 0 0 0 0 0 0 0 0 0 0 0 0 0 0 0 0 0 0 3 0
0 0 0 0 0 0 0 0 0 0 0 0 0 0 0 0 0 0 0 0 0 0 0 0 0 0 0 0 0 0 0 0 0 0 0 0 0 0 0 0 0 3 3
0 0 0 0 0 0 0 0 0 0 0 0 0 0 0 0 0 0 0 0 0 0 0 0 0 0 0 0 0 0 0 0 0 0 0 0 0 0 0 0 0 0 3
0 0 0 0 0 0 0 0 0 0 0 0 0 0 0 0 0 0 0 0 0 0 0 0 0 0 0 0 0 0 0 0 0 0 0 0 0 0 0 0 0 0 0
0 0 0 0 0 0 0 0 0 0 0 0 0 0 0 0 0 0 0 0 0 0 0 0 0 0 0 0 0 0 0 0 0 0 0 0 0 0 0 0 0 0 0
0 0 0 0 0 0 0 0 0 0 0 0 0 0 0 0 0 0 0 0 0 0 0 0 0 0 0 0 0 0 0 0 0 0 0 0 0 0 0 0 0 0 0
0 0 0 0 0 0 0 0 0 0 0 0 0 0 0 0 0 0 0 0 0 0 0 0 0 0 0 0 0 0 0 0 0 0 0 0 0 0 0 0 0 0 0
0 0 0 0 0 0 0 0 0 0 0 0 0 0 0 0 0 0 0 0 0 0 0 0 0 0 0 0 0 0 0 0 0 0 0 0 0 0 0 0 0 0 0
0 0 0 0 0 0 0 0 0 0 0 0 0 0 0 0 0 0 0 0 0 0 0 0 0 0 0 0 0 0 0 0 0 0 0 0 0 0 0 0 0 0 0
0 0 0 0 0 0 0 0 0 0 0 0 0 0 0 0 0 0 0 0 0 0 0 0 0 0 0 0 0 0 0 0 0 0 0 0 0 0 0 0 0 0 0
0 0 0 0 0 0 0 0 0 0 0 0 0 0 0 0 0 0 0 0 0 0 0 0 0 0 0 0 0 0 0 0 0 0 0 0 0 0 0 0 0 0 0
0 0 0 0 0 0 0 0 0 0 0 0 0 0 0 0 0 0 0 0 0 0 0 0 0 0 0 0 0 0 0 0 0 0 0 0 0 0 0 0 0 0 0
Height
5832 5832 5833 5834 5835 5836 5838 5839 5840 5841 5843 5844 5845 5846 5847 5848 5849 5850 5851 5852 5853 5854 5855 5856 5857 5858 5859 5860 5860 5861 5861 5862 5862 5863 5863 5863 5863 5864 5864 5864 5864 5864 5864
5828 5828 5829 5830 5831 5832 5834 5835 5837 5838 5840 5841 5842 5843 5844 5845 5846 5848 5849 5850 5851 5852 5854 5855 5856 5857 5857 5858 5859 5860 5860 5861 5861 5862 5862 5862 5862 5863 5863 5863 5863 5863 5863
5823 5824 5825 5826 5827 5828 5830 5831 5833 5835 5836 5837 5839 5840 5841 5843 5844 5845 5846 5848 5849 5850 5851 5853 5854 5855 5856 5856 5857 5858 5859 5859 5860 5860 5860 5861 5861 5861 5861 5862 5862 5862 5862
5818 5819 5820 5821 5822 5824 5825 5827 5829 5830 5832 5834 5835 5837 5838 5839 5841 5842 5844 5845 5846 5848 5849 5850 5851 5853 5854 5854 5855 5856 5857 5857 5858 5858 5859 5859 5859 5860 5860 5860 5860 5860 5860
5813 5814 5815 5816 5817 5819 5820 5822 5824 5826 5827 5829 5831 5833 5834 5836 5837 5839 5841 5842 5843 5845 5846 5848 5849 5850 5851 5852 5853 5854 5855 5855 5856 5856 5857 5857 5857 5858 5858 5858 5859 5859 5859
5806 5807 5809 5810 5811 5813 5814 5816 5818 5820 5822 5824 5826 5828 5830 5832 5833 5835 5837 5838 5840 5841 5843 5844 5846 5847 5848 5849 5850 5851 5852 5853 5854 5854 5855 5855 5855 5856 5856 5856 5857 5857 5857
5800 5801 5802 5803 5804 5806 5808 5810 5812 5814 5816 5819 5821 5823 5825 5827 5829 5831 5833 5835 5836 5838 5839 5841 5842 5844 5845 5846 5847 5848 5849 5850 5851 5852 5852 5853 5853 5853 5854 5854 5854 5855 5855
5792 5793 5794 5795 5796 5798 5801 5803 5805 5807 5810 5812 5815 5817 5820 5822 5824 5826 5828 5830 5832 5834 5835 5837 5838 5840 5841 5842 5844 5845 5846 5847 5848 5849 5849 5850 5850 5851 5851 5852 5852 5852 5852
5785 5785 5786 5787 5788 5790 5793 5795 5797 5800 5803 5805 5808 5811 5814 5816 5819 5821 5823 5825 5827 5829 5831 5832 5834 5836 5837 5838 5840 5841 5842 5844 5845 5845 5846 5847 5847 5848 5848 5849 5849 5849 5850
5777 5777 5778 5779 5780 5782 5784 5787 5790 5793 5795 5798 5801 5804 5807 5810 5813 5815 5817 5819 5822 5824 5826 5828 5830 5831 5833 5834 5836 5837 5838 5839 5840 5841 5842 5843 5844 5844 5845 5845 5846 5846 5846
5770 5769 5769 5770 5772 5774 5776 5779 5782 5785 5788 5791 5794 5797 5800 5803 5806 5809 5811 5813 5815 5818 5820 5822 5824 5826 5827 5829 5831 5832 5834 5835 5836 5837 5838 5839 5839 5840 5840 5841 5842 5842 5843
5762 5762 5762 5762 5764 5766 5768 5771 5774 5777 5780 5783 5786 5789 5792 5796 5799 5802 5805 5807 5809 5812 5814 5816 5818 5820 5822 5824 5825 5827 5829 5830 5831 5832 5833 5834 5834 5835 5836 5836 5837 5838 5838
5754 5754 5754 5755 5756 5758 5760 5763 5766 5768 5772 5775 5779 5781 5784 5788 5791 5794 5797 5800 5802 5805 5807 5810 5812 5814 5816 5818 5819 5821 5823 5824 5826 5827 5828 5828 5829 5830 5830 5831 5832 5833 5834
5747 5747 5747 5747 5749 5750 5752 5754 5757 5759 5763 5767 5770 5773 5776 5779 5783 5786 5789 5792 5795 5798 5800 5803 5805 5807 5809 5811 5813 5815 5817 5818 5820 5821 5821 5822 5823 5824 5825 5826 5827 5828 5829
5740 5739 5739 5740 5741 5743 5744 5746 5748 5751 5754 5758 5762 5765 5768 5771 5774 5778 5781 5784 5787 5790 5793 5795 5797 5799 5802 5804 5806 5808 5810 5812 5813 5814 5815 5816 5818 5819 5820 5820 5821 5822 5823
5733 5732 5732 5733 5734 5736 5737 5739 5740 5743 5746 5749 5753 5756 5759 5762 5766 5769 5773 5776 5779 5782 5785 5788 5790 5792 5794 5796 5799 5801 5803 5805 5806 5807 5809 5810 5811 5813 5814 5815 5815 5816 5817
5726 5726 5726 5726 5727 5728 5730 5731 5732 5734 5737 5741 5744 5747 5750 5754 5757 5761 5765 5768 5771 5774 5777 5779 5782 5784 5786 5789 5791 5793 5796 5797 5799 5801 5802 5803 5805 5806 5807 5808 5809 5810 5810
5719 5719 5719 5719 5720 5720 5721 5723 5724 5725 5728 5731 5735 5738 5742 5745 5749 5752 5756 5759 5762 5765 5768 5771 5774 5776 5779 5781 5783 5786 5788 5790 5792 5793 5795 5797 5798 5799 5800 5801 5802 5803 5803
5712 5712 5711 5712 5712 5712 5713 5715 5716 5717 5720 5723 5726 5730 5733 5737 5740 5743 5747 5750 5752 5756 5759 5762 5765 5768 5770 5773 5776 5778 5780 5782 5784 5786 5788 5789 5790 5792 5793 5794 5794 5795 5796
5705 5704 5704 5703 5703 5704 5705 5706 5708 5709 5711 5714 5717 5721 5724 5728 5731 5734 5737 5741 5744 5747 5750 5753 5756 5759 5762 5765 5768 5770 5772 5774 5776 5778 5780 5781 5783 5784 5785 5786 5787 5787 5788
5698 5697 5696 5695 5695 5696 5697 5698 5699 5701 5703 5706 5708 5712 5715 5719 5722 5725 5729 5732 5735 5739 5742 5745 5748 5751 5754 5757 5759 5762 5764 5766 5768 5770 5772 5773 5775 5776 5777 5778 5778 5779 5779
5691 5689 5688 5687 5687 5687 5689 5690 5691 5692 5694 5697 5700 5703 5706 5710 5714 5717 5721 5724 5727 5731 5734 5737 5740 5743 5746 5749 5751 5753 5756 5758 5760 5762 5763 5765 5766 5767 5768 5769 5770 5770 5771
5685 5683 5682 5681 5680 5680 5681 5681 5682 5684 5686 5689 5692 5695 5698 5702 5705 5709 5713 5716 5719 5723 5726 5730 5733 5735 5738 5740 5743 5745 5747 5750 5752 5753 5754 5756 5757 5758 5760 5760 5760 5761 5761
5680 5678 5676 5675 5675 5674 5674 5675 5676 5678 5680 5682 5685 5687 5690 5694 5697 5701 5705 5708 5712 5715 5718 5722 5725 5728 5730 5732 5734 5736 5738 5741 5743 5745 5746 5747 5748 5749 5750 5751 5751 5751 5751
5675 5673 5671 5670 5669 5669 5668 5669 5670 5671 5673 5675 5677 5680 5683 5686 5690 5693 5697 5700 5704 5707 5710 5713 5716 5719 5721 5723 5726 5727 5729 5731 5733 5735 5736 5737 5738 5739 5739 5740 5741 5741 5741
5670 5668 5666 5665 5664 5664 5663 5663 5664 5665 5666 5668 5670 5673 5675 5679 5682 5685 5689 5693 5696 5699 5702 5705 5708 5710 5712 5714 5716 5718 5720 5721 5723 5724 5725 5727 5728 5729 5729 5729 5729 5730 5730
Wind_Speed
18 19 20 20 19 18 18 17 15 14 13 13 12 11 11 10 9 8 8 9 8 7 7 7 7 7 6 6 6 6 5 5 4 4 4 4 3 3 3 3 3 3 3
19 20 20 21 21 21 20 19 18 17 16 15 14 13 12 12 11 10 10 10 10 9 9 8 8 8 8 7 7 7 6 6 6 6 5 5 5 4 4 4 4 3 3
20 21 21 22 23 23 22 21 20 19 18 18 17 16 15 14 14 13 12 12 11 11 10 10 9 9 9 9 8 8 8 8 8 7 7 6 6 5 5 5 5 4 4
22 22 23 23 24 25 24 24 22 21 21 21 20 19 17 17 16 15 14 14 14 13 12 12 11 11 11 10 10 10 9 9 9 8 8 7 7 7 6 6 6 6 5
24 25 25 25 26 26 27 27 26 24 24 23 23 22 21 19 18 17 16 16 15 15 14 14 13 13 12 12 12 11 11 10 10 9 9 8 8 7 7 7 7 6 7
26 27 27 28 28 28 29 29 28 27 27 26 26 25 24 22 21 20 19 19 18 17 16 15 15 15 14 13 13 13 12 12 11 10 10 9 9 8 8 8 8 8 8
28 29 29 30 30 31 31 31 31 30 29 28 28 27 26 25 23 21 21 20 20 19 18 17 17 17 16 15 15 14 14 13 13 12 11 11 10 10 10 9 10 10 10
28 29 30 30 31 32 32 32 33 32 32 30 30 30 29 27 26 24 23 22 22 21 20 20 19 18 18 17 17 16 16 15 14 14 13 13 12 12 11 11 11 11 11
28 29 30 30 31 33 34 34 34 34 33 33 32 31 31 30 29 27 25 24 23 23 22 22 21 20 20 19 18 18 18 17 17 16 15 15 14 14 14 13 13 13 13
29 29 31 31 32 33 34 35 34 34 35 34 33 33 33 32 31 30 28 27 26 24 23 23 23 23 22 21 21 20 19 19 19 18 18 17 17 17 16 16 15 15 15
29 30 31 32 32 33 34 35 34 35 35 36 35 34 34 34 33 32 31 30 29 28 26 25 24 24 24 24 23 22 22 21 21 20 20 19 19 19 18 18 18 17 17
29 30 30 32 32 32 33 34 35 35 36 36 35 35 35 35 35 34 33 32 30 29 29 28 26 26 26 25 25 24 23 23 23 22 22 22 21 21 21 20 20 19 19
27 28 29 31 32 32 33 34 35 35 36 37 37 37 36 36 35 34 34 34 33 31 30 30 29 28 28 27 27 26 25 25 25 24 24 23 23 22 22 22 22 22 21
26 27 28 29 31 32 32 35 36 35 36 37 37 37 38 38 36 36 35 35 35 34 32 31 31 31 30 30 29 28 28 27 26 26 26 25 25 24 24 24 23 23 23
26 27 27 28 28 30 32 32 35 35 35 37 37 38 38 39 38 37 36 35 35 35 34 33 32 32 32 32 31 30 29 28 28 28 27 27 27 26 26 26 26 25 25
26 27 27 28 27 28 30 32 33 34 35 36 38 38 38 38 38 38 37 37 36 35 35 35 34 33 34 33 33 32 31 30 29 29 29 28 28 28 28 28 28 27 27
26 27 28 28 29 30 31 32 33 34 35 36 38 39 39 38 38 37 38 38 38 37 36 35 34 33 32 33 33 34 33 32 31 30 30 30 29 29 30 30 30 30 30
25 27 28 29 30 32 33 32 32 33 34 36 37 38 40 38 37 38 38 39 39 39 37 36 36 35 35 34 33 33 34 34 32 31 31 32 31 31 31 32 32 32 32
26 27 28 29 31 32 34 34 34 32 33 35 36 37 39 39 36 36 38 39 38 39 38 37 36 36 36 35 35 34 34 34 33 33 32 33 33 33 33 33 33 33 33
26 26 27 29 31 32 33 34 35 34 33 34 36 38 39 39 37 37 37 37 38 38 38 38 37 36 36 36 36 35 35 34 34 34 33 33 33 33 33 33 33 34 34
26 26 26 27 29 30 32 33 34 35 34 33 35 37 38 39 37 36 36 35 36 37 37 37 38 37 36 36 36 36 35 34 34 34 34 35 34 34 34 34 34 34 34
24 25 26 26 27 28 30 32 34 36 35 34 34 35 36 37 36 36 36 35 35 36 36 36 37 37 37 37 36 36 36 36 35 36 36 36 37 36 36 36 37 36 36
23 23 24 25 26 27 28 31 33 34 34 35 35 35 36 37 36 35 36 36 37 36 36 35 34 35 36 36 36 36 36 37 37 37 38 38 37 37 37 37 38 38 38
22 22 23 23 24 25 26 28 30 31 31 32 34 35 36 37 37 36 36 36 37 37 38 37 36 35 35 35 36 37 37 37 38 37 38 38 39 39 38 39 40 40 40
22 21 22 22 22 23 25 26 28 29 29 31 33 35 35 37 38 38 37 37 37 36 37 38 38 37 36 36 36 37 37 38 38 38 38 39 40 40 41 41 42 42 42
21 21 21 21 21 22 23 25 26 28 29 30 31 33 35 36 36 36 37 37 37 36 37 37 37 37 36 36 37 37 38 38 38 39 40 40 41 41 42 42 43 44 44
Wind_Direction
254 251 249 248 247 246 246 246 246 244 242 240 238 238 238 238 238 236 233 232 232 233 233 233 236 238 240 242 244 244 245 252 260 267 274 271 279 292 298 300 301 297 301
256 253 249 247 247 246 245 244 245 245 244 241 239 239 240 241 240 239 237 235 237 239 239 238 240 242 245 246 249 251 252 254 261 268 271 273 274 283 290 291 288 287 290
257 255 251 248 247 246 246 245 245 245 245 243 241 240 242 243 241 242 240 238 239 242 243 242 241 242 247 249 250 252 255 258 262 267 269 270 272 277 283 284 282 283 289
259 257 254 250 248 247 247 246 246 245 245 244 243 242 242 243 242 242 242 240 242 243 244 244 244 244 247 249 250 252 255 258 261 265 268 270 273 274 277 278 278 279 283
260 258 255 253 251 249 248 247 247 246 245 245 244 243 242 241 242 243 242 243 243 244 245 246 246 246 247 250 251 252 254 256 259 262 265 265 269 273 274 273 271 273 280
262 259 256 255 252 250 248 248 247 247 246 245 244 243 243 242 242 243 243 244 244 244 246 247 246 246 248 251 251 253 254 255 257 261 263 263 266 270 274 273 270 270 276
264 260 257 256 253 250 249 249 249 247 247 245 244 243 243 244 244 244 244 244 244 244 245 247 247 246 247 250 251 252 253 254 255 258 260 261 265 270 272 274 272 271 273
265 261 257 256 252 250 248 248 248 248 247 245 244 243 243 243 244 245 244 243 243 243 244 245 247 248 249 249 250 251 252 253 256 257 257 259 263 267 270 273 273 272 273
266 262 258 257 254 250 247 247 247 248 246 244 243 243 242 243 244 244 243 242 243 244 245 245 246 248 249 250 251 251 253 254 256 258 257 257 261 265 268 271 273 272 273
266 264 260 258 255 251 248 246 245 246 245 243 243 242 242 242 243 243 244 244 244 245 245 246 245 247 249 250 252 252 252 253 255 257 256 257 261 264 266 268 271 271 272
269 265 262 257 254 251 249 246 244 244 244 243 241 242 242 241 242 243 243 245 245 246 246 247 248 248 249 250 251 252 252 252 253 255 255 259 260 260 262 265 268 269 270
269 266 263 258 253 251 250 246 243 244 243 242 241 241 241 241 242 242 243 244 245 245 246 247 249 248 249 250 250 250 252 253 254 254 257 260 259 259 261 263 266 268 269
270 266 262 259 255 252 249 246 243 244 243 242 241 241 241 242 242 242 243 243 244 245 246 248 248 248 249 249 250 251 251 252 254 254 258 258 259 259 260 263 265 267 268
271 267 261 257 253 251 249 247 243 244 243 241 242 241 241 242 242 242 242 242 243 244 245 247 248 248 249 249 250 251 252 253 253 255 257 257 258 259 260 262 264 265 267
272 267 263 259 256 252 249 249 246 245 242 241 241 241 241 242 242 242 242 242 243 243 244 245 247 248 249 250 249 250 252 253 253 255 256 256 258 260 261 262 263 264 266
275 268 264 259 256 253 250 252 250 246 243 241 241 241 241 241 241 242 240 242 242 243 244 246 247 249 249 249 250 251 252 253 254 255 256 256 258 259 261 263 264 265 266
278 270 265 260 257 255 253 252 250 247 245 242 242 241 240 241 241 242 243 242 243 243 244 245 245 248 249 251 252 252 253 254 254 255 255 255 257 260 262 264 264 265 266
279 272 266 264 260 257 254 252 253 249 245 241 241 241 240 240 241 242 243 242 243 243 244 245 246 247 249 251 253 254 254 254 255 255 256 256 257 260 263 265 265 266 267
280 274 269 267 263 259 257 255 254 254 247 243 240 242 240 240 242 242 242 241 242 243 244 245 247 247 249 250 252 253 253 254 255 256 256 256 258 259 261 264 266 267 267
284 278 273 269 265 260 258 257 255 254 250 245 241 241 241 241 242 242 243 241 241 243 244 245 246 246 249 250 251 252 252 253 254 255 256 257 258 259 261 263 265 266 267
287 281 276 271 266 261 258 257 254 253 251 248 244 241 241 241 242 242 243 242 241 242 243 245 245 246 249 250 252 253 252 253 254 255 255 256 258 260 262 263 264 266 268
289 282 277 273 268 265 262 259 255 252 251 249 246 243 241 240 239 240 240 242 243 243 243 245 247 248 250 251 253 253 252 254 256 258 257 258 259 261 263 264 266 268 269
291 284 280 277 272 268 266 262 257 255 253 252 249 247 243 240 240 241 241 242 242 244 244 245 248 249 249 251 253 254 255 255 258 260 260 260 261 262 263 265 267 268 269
294 287 283 280 276 273 268 263 259 257 254 253 251 250 244 241 242 242 241 242 244 245 244 245 248 250 250 252 253 255 256 257 259 261 262 263 263 264 265 266 267 268 269
297 291 286 283 280 276 271 266 262 259 257 254 251 248 243 242 243 244 242 243 244 243 244 246 248 251 253 254 256 258 259 259 261 263 264 264 265 265 267 267 267 268 269
301 296 291 285 281 278 274 270 265 260 259 256 251 249 245 243 244 243 243 243 244 244 246 247 249 252 254 256 258 259 261 262 263 265 265 265 265 266 267 268 267 269 270